Location: Angwan Shehu
(11.2514°N, 7.4613°E)
Time: 02:07:40
(UTC+00:00)

Tiros 1 - Pass Details

Date: 25 April 2021
Orbit: 630 x 664 km, 48.4° (Epoch: 06 May)

Event Time Altitude Azimuth Distance (km) Brightness Sun altitude
Rises 15:26:18 0° 306° (NW) 2,904 11.4 31.9°
Reaches altitude 10° 15:28:46 10° 297° (WNW) 2,000 11.0 31.3°
Maximum altitude 15:32:57 35° 232° (SW) 1,027 9.1 30.3°
Drops below altitude 10° 15:37:09 10° 166° (SSE) 2,013 9.6 29.3°
Sets 15:39:39 0° 157° (SSE) 2,927 10.2 28.7°
